Location: Chamerau
(49.1969°N, 12.7525°E)
Time: 02:58:09
(UTC+00:00)

CZ-2C R/B - Pass Details

Date: 18 September 2020
Orbit: 640 x 704 km, 98.4° (Epoch: 24 October)

Event Time Altitude Azimuth Distance (km) Brightness Sun altitude
Rises 19:58:20 0° 11° (N) 2,962 7.4 -25.7°
Reaches altitude 10° 20:00:33 10° 8° (N) 2,051 6.5 -26.0°
Maximum altitude 20:04:58 62° 288° (WNW) 735 4.0 -26.6°
Enters shadow 20:05:31 56° 253° (WSW) 774 4.1 -26.6°
